Raleigh, NC

12:45 PM EDT on August 31, 2016 (GMT -0400)
Raleigh-Durham International

Weather History for KRDU - June, 2012

Change the Weather History Date:

Sunday, June 10, 2012

  Actual Average Record
Temperature  
Mean Temperature 33 °F 75 °F  
Max Temperature 0 °F 86 °F 101 °F (2008)
Min Temperature 65 °F 65 °F 48 °F (1997)
Degree Days  
Heating Degree Days 32 0  
Month to date heating degree days 32 0  
Since 1 June heating degree days 32 0  
Since 1 July heating degree days 2560 3243  
Cooling Degree Days 0 10  
Month to date cooling degree days 42 92  
Year to date cooling degree days 364 301  
Since 1 June cooling degree days 42 92  
Growing Degree Days 26 (Base 50)    
Moisture  
Dew Point 60 °F    
Average Humidity 58    
Maximum Humidity 81    
Minimum Humidity 34    
Precipitation  
Precipitation 0.00 in 0.12 in 2.82 in (1982)
Month to date precipitation 1.23 1.21  
Year to date precipitation 17.09 18.24  
Sea Level Pressure  
Sea Level Pressure 30.12 in    
Wind  
Wind Speed 7 mph (SW)    
Max Wind Speed 13 mph    
Max Gust Speed 18 mph    
Visibility 10 miles    
Events      
T = Trace of Precipitation, MM = Missing Value Source: NWS Daily Summary

Daily Weather History Graph

Daily Weather History Graph

Search for Another Location

Airport or City:

Trip Planner

Search our weather history database for the weather conditions in past years. The results will help you decide how hot, cold, wet, or windy it might be!

Date:

Astronomy

Jun. 10, 2012 Rise Set
Actual Time 5:58 AM EDT 8:31 PM EDT
Civil Twilight 5:28 AM EDT 9:01 PM EDT
Nautical Twilight 4:50 AM EDT 9:38 PM EDT
Astronomical Twilight 4:09 AM EDT 10:20 PM EDT
Moon 12:33 AM EDT (6/10) 12:33 PM EDT (6/10)
Length of Visible Light 15h 33m
Length of Day
14h 33m
Waning Gibbous, 58% of the Moon is Illuminated
Jun 10
Waning Gibbous
Jun 11
Last Quarter
Jun 19
New
Jun 26
First Quarter
Jul 3
Full

Hourly Weather History & Observations

Time (EDT) Temp. Heat Index Dew Point Humidity Pressure Visibility Wind Dir Wind Speed Gust Speed Precip Events Conditions
12:51 AM 72.0 °F - 57.9 °F 61% 30.08 in 10.0 mi SW 6.9 mph - N/A   Mostly Cloudy
1:51 AM 70.0 °F - 59.0 °F 68% 30.07 in 10.0 mi SW 6.9 mph - N/A   Mostly Cloudy
2:51 AM 68.0 °F - 60.1 °F 76% 30.07 in 10.0 mi WSW 5.8 mph - N/A   Mostly Cloudy
3:51 AM 66.9 °F - 60.1 °F 79% 30.08 in 10.0 mi WSW 4.6 mph - N/A   Mostly Cloudy
4:51 AM 66.9 °F - 60.1 °F 79% 30.09 in 10.0 mi WSW 3.5 mph - N/A   Mostly Cloudy
5:51 AM 66.0 °F - 60.1 °F 81% 30.09 in 10.0 mi WSW 3.5 mph - N/A   Mostly Cloudy
6:51 AM 66.0 °F - 61.0 °F 84% 30.11 in 10.0 mi WSW 4.6 mph - N/A   Mostly Cloudy
7:51 AM 70.0 °F - 63.0 °F 78% 30.12 in 10.0 mi WSW 5.8 mph - N/A   Mostly Cloudy
8:51 AM 73.9 °F - 62.1 °F 66% 30.14 in 10.0 mi WNW 8.1 mph - N/A   Mostly Cloudy
9:51 AM 79.0 °F - 63.0 °F 58% 30.14 in 10.0 mi WSW 5.8 mph - N/A   Mostly Cloudy
10:51 AM 82.0 °F 83.1 °F 63.0 °F 52% 30.14 in 10.0 mi SW 9.2 mph - N/A   Mostly Cloudy
11:51 AM 86.0 °F 86.3 °F 62.1 °F 44% 30.14 in 10.0 mi Variable 4.6 mph - N/A   Mostly Cloudy
12:51 PM 87.1 °F 86.7 °F 60.1 °F 40% 30.14 in 10.0 mi South 8.1 mph - N/A   Mostly Cloudy
1:51 PM 88.0 °F 87.1 °F 59.0 °F 37% 30.13 in 10.0 mi SW 12.7 mph - N/A   Mostly Cloudy
2:51 PM 88.0 °F 87.1 °F 59.0 °F 37% 30.12 in 10.0 mi SW 5.8 mph - N/A   Mostly Cloudy
3:51 PM 87.8 °F 86.1 °F 55.4 °F 33% 30.13 in 10.0 mi South 9.2 mph - N/A   Mostly Cloudy
4:51 PM 84.9 °F 83.7 °F 55.9 °F 37% 30.12 in 10.0 mi SSW 10.4 mph - N/A   Mostly Cloudy
5:51 PM 82.9 °F 82.6 °F 57.9 °F 42% 30.12 in 10.0 mi SSW 8.1 mph - N/A   Mostly Cloudy
6:51 PM 82.0 °F 82.0 °F 57.9 °F 44% 30.12 in 10.0 mi SSE 4.6 mph - N/A   Mostly Cloudy
7:51 PM 80.1 °F 81.1 °F 61.0 °F 52% 30.13 in 10.0 mi South 4.6 mph - N/A   Mostly Cloudy
8:51 PM 75.9 °F - 57.9 °F 54% 30.14 in 10.0 mi WSW 5.8 mph - N/A   Mostly Cloudy
9:51 PM 75.0 °F - 57.9 °F 55% 30.15 in 10.0 mi Calm Calm - N/A   Mostly Cloudy
10:51 PM 71.1 °F - 60.1 °F 68% 30.17 in 10.0 mi SSE 3.5 mph - N/A   Mostly Cloudy
11:51 PM 75.0 °F - 60.1 °F 60% 30.17 in 10.0 mi SSW 6.9 mph - N/A   Overcast